Total_Precipitation_Accumulation
1.65 1.74 1.47 1.37 1.35 1.56 1.83 1.78 1.63 1.67 1.76 1.79 1.63 1.53 1.33 1.01 0.88 0.84 0.86 1.17 1.23 1.19 1.29 1.30 1.24 1.17 1.05 0.91 0.82 0.77 0.77 0.76 0.67 0.53 0.44 0.33 0.26 0.25 0.17 0.10 0.07 0.05 0.05
1.60 1.48 1.46 1.45 1.38 1.55 1.60 1.67 1.71 1.85 1.88 1.96 1.69 1.56 1.41 1.24 1.11 1.09 1.02 1.23 1.26 1.15 1.19 1.31 1.30 1.28 1.27 1.16 1.00 0.92 0.84 0.80 0.69 0.55 0.47 0.40 0.32 0.29 0.25 0.21 0.19 0.12 0.08
1.53 1.54 1.45 1.34 1.39 1.49 1.56 1.62 1.67 1.75 1.64 1.70 1.60 1.55 1.48 1.35 1.28 1.18 1.08 1.03 0.95 1.06 1.17 1.22 1.26 1.25 1.30 1.29 1.25 1.14 0.95 0.79 0.67 0.51 0.42 0.40 0.37 0.31 0.27 0.26 0.26 0.22 0.17
1.28 1.33 1.22 1.21 1.32 1.23 1.22 1.25 1.25 1.30 1.32 1.45 1.41 1.30 1.27 1.27 1.23 1.19 1.06 0.93 0.88 0.74 0.95 1.23 1.32 1.21 1.30 1.39 1.44 1.42 1.10 0.79 0.61 0.50 0.41 0.36 0.36 0.29 0.21 0.18 0.19 0.23 0.19
0.78 0.82 0.80 0.83 0.90 0.91 0.91 0.88 1.02 1.10 1.15 1.25 1.29 1.12 1.07 1.16 1.16 1.13 1.03 0.86 0.89 0.80 0.71 0.90 1.15 1.11 1.29 1.48 1.62 1.61 1.41 1.07 0.75 0.64 0.54 0.45 0.41 0.31 0.21 0.17 0.16 0.16 0.15
0.61 0.58 0.56 0.58 0.57 0.60 0.66 0.69 0.73 0.83 0.85 0.90 0.92 0.87 0.90 0.85 0.93 0.92 0.83 0.80 0.75 0.65 0.61 0.74 0.97 0.87 1.11 1.34 1.49 1.56 1.57 1.46 1.12 0.85 0.68 0.63 0.61 0.45 0.25 0.19 0.18 0.16 0.14
0.43 0.45 0.41 0.40 0.40 0.39 0.40 0.44 0.51 0.57 0.59 0.68 0.72 0.66 0.62 0.59 0.63 0.62 0.63 0.67 0.62 0.60 0.63 0.69 0.77 0.78 0.75 0.89 1.04 1.22 1.50 1.61 1.46 1.19 0.96 0.80 0.77 0.64 0.38 0.26 0.20 0.20 0.21
0.30 0.30 0.30 0.31 0.31 0.29 0.30 0.33 0.36 0.37 0.40 0.51 0.57 0.58 0.50 0.47 0.46 0.41 0.49 0.46 0.46 0.61 0.64 0.64 0.69 0.79 0.77 0.85 0.74 0.85 1.22 1.51 1.71 1.61 1.38 1.09 0.89 0.70 0.52 0.40 0.29 0.23 0.23
0.22 0.23 0.23 0.24 0.27 0.28 0.29 0.32 0.32 0.33 0.32 0.34 0.44 0.56 0.50 0.41 0.35 0.34 0.37 0.42 0.49 0.56 0.58 0.68 0.68 0.67 0.67 0.77 0.90 0.92 1.02 1.16 1.59 1.88 1.78 1.40 1.02 0.75 0.65 0.59 0.50 0.40 0.31
0.18 0.17 0.17 0.16 0.18 0.23 0.29 0.29 0.34 0.34 0.32 0.26 0.30 0.39 0.44 0.46 0.44 0.37 0.36 0.39 0.49 0.54 0.55 0.56 0.58 0.66 0.77 0.87 0.95 0.99 0.86 0.91 1.23 1.61 1.78 1.63 1.30 0.98 0.79 0.75 0.84 0.78 0.57
0.18 0.18 0.18 0.17 0.15 0.15 0.20 0.23 0.31 0.35 0.36 0.31 0.29 0.33 0.36 0.38 0.41 0.41 0.31 0.31 0.38 0.37 0.41 0.46 0.58 0.63 0.71 0.90 1.09 0.99 0.82 0.76 0.90 1.17 1.38 1.47 1.44 1.21 0.97 0.87 1.04 1.12 0.91
0.18 0.17 0.18 0.19 0.19 0.17 0.15 0.15 0.20 0.27 0.34 0.36 0.32 0.30 0.37 0.39 0.39 0.42 0.31 0.24 0.28 0.25 0.28 0.32 0.43 0.56 0.70 0.84 0.87 0.88 0.89 0.83 0.83 0.91 1.03 1.16 1.26 1.24 1.15 1.14 1.29 1.42 1.37
0.16 0.16 0.16 0.18 0.19 0.20 0.19 0.17 0.16 0.19 0.26 0.32 0.31 0.32 0.34 0.33 0.40 0.41 0.33 0.27 0.30 0.31 0.41 0.40 0.45 0.63 0.69 0.90 0.88 0.90 0.89 0.84 0.72 0.66 0.70 0.79 0.90 1.03 1.15 1.18 1.32 1.45 1.55
0.22 0.21 0.16 0.15 0.17 0.18 0.18 0.18 0.17 0.17 0.21 0.26 0.28 0.38 0.37 0.29 0.36 0.38 0.39 0.44 0.43 0.45 0.52 0.50 0.59 0.83 1.04 1.07 1.06 0.94 0.76 0.74 0.64 0.59 0.53 0.55 0.61 0.72 0.80 0.90 1.02 1.11 1.20
0.23 0.21 0.18 0.15 0.15 0.16 0.17 0.18 0.18 0.20 0.23 0.26 0.31 0.41 0.42 0.39 0.40 0.41 0.45 0.56 0.62 0.54 0.53 0.64 0.76 0.85 0.95 0.96 0.96 0.85 0.68 0.67 0.61 0.55 0.50 0.46 0.47 0.52 0.59 0.62 0.65 0.71 0.76
0.19 0.17 0.16 0.14 0.12 0.13 0.16 0.17 0.18 0.23 0.26 0.32 0.39 0.45 0.51 0.51 0.51 0.51 0.52 0.60 0.73 0.71 0.66 0.67 0.75 0.76 0.76 0.62 0.64 0.64 0.61 0.63 0.55 0.50 0.48 0.45 0.42 0.43 0.45 0.50 0.53 0.54 0.56
0.18 0.16 0.15 0.14 0.13 0.13 0.15 0.18 0.20 0.22 0.25 0.31 0.38 0.44 0.48 0.55 0.62 0.63 0.68 0.70 0.73 0.84 0.78 0.66 0.77 0.86 0.78 0.60 0.51 0.51 0.53 0.53 0.51 0.50 0.47 0.46 0.44 0.43 0.42 0.41 0.45 0.48 0.46
0.15 0.15 0.15 0.13 0.11 0.11 0.14 0.19 0.22 0.22 0.25 0.29 0.36 0.46 0.50 0.51 0.57 0.64 0.76 0.79 0.81 0.93 0.92 0.78 0.85 0.94 0.85 0.74 0.61 0.53 0.44 0.43 0.44 0.48 0.47 0.48 0.47 0.44 0.42 0.40 0.37 0.36 0.36
0.15 0.14 0.15 0.13 0.11 0.10 0.11 0.14 0.19 0.23 0.27 0.29 0.34 0.42 0.50 0.58 0.61 0.65 0.75 0.79 0.85 1.00 1.04 0.96 0.96 1.06 1.09 0.88 0.66 0.51 0.42 0.42 0.39 0.43 0.45 0.47 0.47 0.44 0.40 0.39 0.39 0.34 0.29
0.13 0.14 0.15 0.15 0.14 0.12 0.10 0.10 0.12 0.16 0.21 0.27 0.35 0.39 0.43 0.55 0.64 0.68 0.76 0.88 0.96 1.04 1.12 1.10 1.13 1.24 1.24 1.10 0.84 0.57 0.48 0.45 0.43 0.39 0.42 0.42 0.43 0.41 0.38 0.34 0.33 0.33 0.32
0.11 0.15 0.18 0.18 0.18 0.15 0.10 0.10 0.13 0.13 0.15 0.19 0.26 0.33 0.34 0.39 0.49 0.61 0.69 0.79 0.96 1.12 1.27 1.33 1.34 1.50 1.45 1.25 0.99 0.70 0.58 0.52 0.49 0.46 0.43 0.37 0.35 0.32 0.31 0.30 0.30 0.30 0.29
0.15 0.20 0.22 0.22 0.22 0.15 0.10 0.09 0.10 0.12 0.15 0.18 0.22 0.28 0.29 0.29 0.32 0.38 0.48 0.62 0.77 0.94 1.15 1.33 1.46 1.56 1.61 1.47 1.26 1.02 0.71 0.53 0.48 0.50 0.48 0.46 0.42 0.38 0.33 0.30 0.31 0.29 0.29
0.19 0.25 0.27 0.28 0.28 0.28 0.20 0.13 0.09 0.12 0.15 0.19 0.23 0.26 0.21 0.18 0.26 0.30 0.35 0.42 0.52 0.64 0.79 1.00 1.20 1.31 1.49 1.60 1.46 1.17 0.89 0.69 0.55 0.53 0.51 0.48 0.47 0.45 0.42 0.38 0.40 0.34 0.30
0.24 0.28 0.29 0.31 0.35 0.34 0.25 0.16 0.13 0.14 0.18 0.21 0.24 0.27 0.27 0.25 0.27 0.32 0.37 0.36 0.37 0.40 0.48 0.59 0.76 1.00 1.21 1.42 1.46 1.35 1.25 1.00 0.77 0.63 0.57 0.50 0.44 0.42 0.43 0.41 0.41 0.37 0.34
0.31 0.35 0.38 0.41 0.44 0.44 0.33 0.19 0.15 0.18 0.24 0.25 0.27 0.30 0.34 0.31 0.26 0.22 0.31 0.33 0.32 0.31 0.32 0.40 0.53 0.75 1.00 1.18 1.35 1.34 1.24 1.10 0.89 0.67 0.54 0.48 0.41 0.39 0.39 0.36 0.36 0.37 0.35
0.40 0.43 0.46 0.51 0.56 0.57 0.47 0.27 0.20 0.23 0.30 0.33 0.38 0.40 0.37 0.31 0.27 0.19 0.25 0.30 0.29 0.28 0.31 0.32 0.38 0.51 0.66 0.91 1.11 1.13 1.04 0.96 0.85 0.67 0.50 0.43 0.38 0.37 0.39 0.31 0.26 0.27 0.29